Somersworth, NH

9:16 PM EST on February 23, 2017 (GMT -0500)
Skyhaven

Weather History for KDAW - April, 2014

Change the Weather History Date:

Wednesday, April 9, 2014

  Actual Average (KPSM) Record (KPSM)
Temperature  
Mean Temperature 44 °F -  
Max Temperature 52 °F 51 °F 83 °F (1991)
Min Temperature 35 °F 32 °F 19 °F (1977)
Degree Days  
Heating Degree Days 20    
Moisture  
Dew Point 24 °F    
Average Humidity 49    
Maximum Humidity 73    
Minimum Humidity 26    
Precipitation  
Precipitation 0.00 in - - ()
Sea Level Pressure  
Sea Level Pressure 29.64 in    
Wind  
Wind Speed 9 mph (NW)    
Max Wind Speed 21 mph    
Max Gust Speed 30 mph    
Visibility 10 miles    
Events      
Averages and records for this station are not official NWS values.
T = Trace of Precipitation, MM = Missing Value Source: NWS Daily Summary

Daily Weather History Graph

Daily Weather History Graph

Search for Another Location

Airport or City:

Trip Planner

Search our weather history database for the weather conditions in past years. The results will help you decide how hot, cold, wet, or windy it might be!

Date:

Astronomy

Apr. 09, 2014 Rise Set
Actual Time 6:11 AM EDT 7:19 PM EDT
Civil Twilight 5:42 AM EDT 7:48 PM EDT
Nautical Twilight 5:07 AM EDT 8:24 PM EDT
Astronomical Twilight 4:30 AM EDT 9:00 PM EDT
Moon 1:56 PM EDT (4/9) 3:07 AM EDT (4/9)
Length of Visible Light 14h 06m
Length of Day
13h 07m
Waxing Gibbous, 71% of the Moon is Illuminated
Apr 9
Waxing Gibbous
Apr 15
Full
Apr 22
Last Quarter
Apr 29
New
May 6
First Quarter

Hourly Weather History & Observations

Time (EDT) Temp. Windchill Dew Point Humidity Pressure Visibility Wind Dir Wind Speed Gust Speed Precip Events Conditions
12:51 AM 42.1 °F 37.7 °F 30.9 °F 65% 29.46 in 10.0 mi Variable 6.9 mph - N/A   Clear
1:51 AM 41.0 °F 38.0 °F 30.9 °F 67% 29.49 in 10.0 mi Variable 4.6 mph - N/A   Clear
2:51 AM 41.0 °F 38.0 °F 30.9 °F 67% 29.49 in 10.0 mi Variable 4.6 mph - N/A   Partly Cloudy
3:51 AM 41.0 °F 36.4 °F 32.0 °F 70% 29.50 in 10.0 mi WNW 6.9 mph - N/A   Clear
4:51 AM 39.0 °F - 30.9 °F 73% 29.50 in 10.0 mi Calm Calm - N/A   Clear
5:51 AM 39.9 °F - 32.0 °F 73% 29.54 in 10.0 mi Calm Calm - N/A   Clear
6:51 AM 39.9 °F 37.8 °F 32.0 °F 73% 29.56 in 10.0 mi Variable 3.5 mph - N/A   Clear
7:51 AM 44.1 °F 41.5 °F 33.1 °F 65% 29.57 in 10.0 mi Variable 4.6 mph - N/A   Clear
8:51 AM 48.0 °F - 33.1 °F 56% 29.57 in 10.0 mi NNW 12.7 mph - N/A   Clear
9:51 AM 50.0 °F - 32.0 °F 50% 29.58 in 10.0 mi NW 17.3 mph 26.5 mph N/A   Clear
10:51 AM 51.1 °F - 30.9 °F 46% 29.58 in 10.0 mi NW 15.0 mph 25.3 mph N/A   Clear
11:51 AM 52.0 °F - 30.9 °F 45% 29.60 in 10.0 mi West 15.0 mph 25.3 mph N/A   Partly Cloudy
12:51 PM 50.0 °F - 30.9 °F 48% 29.62 in 10.0 mi NW 20.7 mph 29.9 mph N/A   Mostly Cloudy
1:51 PM 46.9 °F - 27.0 °F 46% 29.64 in 10.0 mi NW 17.3 mph 27.6 mph N/A   Mostly Cloudy
2:51 PM 50.0 °F - 24.1 °F 36% 29.64 in 10.0 mi WNW 15.0 mph 27.6 mph N/A   Scattered Clouds
3:51 PM 48.9 °F - 19.9 °F 32% 29.65 in 10.0 mi WNW 12.7 mph 25.3 mph N/A   Clear
4:51 PM 48.0 °F - 14.0 °F 26% 29.67 in 10.0 mi NW 20.7 mph 27.6 mph N/A   Clear
6:51 PM 44.1 °F 36.5 °F 14.0 °F 30% 29.72 in 10.0 mi NW 17.3 mph 26.5 mph N/A   Clear
7:51 PM 39.9 °F 32.5 °F 9.0 °F 28% 29.78 in 10.0 mi NNW 12.7 mph - N/A   Clear
8:51 PM 37.9 °F 30.5 °F 9.0 °F 30% 29.83 in 10.0 mi WNW 11.5 mph 21.9 mph N/A   Clear
9:51 PM 37.9 °F 29.6 °F 9.0 °F 30% 29.87 in 10.0 mi NW 13.8 mph 23.0 mph N/A   Clear
10:51 PM 37.0 °F 28.1 °F 10.0 °F 33% 29.89 in 10.0 mi NW 15.0 mph - N/A   Clear
11:51 PM 35.1 °F 29.3 °F 10.0 °F 35% 29.93 in 10.0 mi WNW 6.9 mph - N/A   Clear